Station 45028 - Western Lake Superior Image indicating link to RSS feed of recent meteorological observations for station 45028


Conditions at 45028 as of
(8:20 pm CDT on 07/17/2024)
0120 GMT on 07/18/2024:
     

Click on the graph icon in the table below to see a time series plot of the last five days of that observation.

5-day plot - Wind Direction Wind Direction (WDIR):NNW ( 330 deg true )
5-day plot - Wind Speed Wind Speed (WSPD): 5.8 kts
5-day plot - Atmospheric Pressure Atmospheric Pressure (PRES):30.13 in
5-day plot - Air Temperature Air Temperature (ATMP): 69.3 °F
5-day plot - Water Temperature Water Temperature (WTMP): 66.7 °F
5-day plot - Dew Point Dew Point (DEWP): 58.3 °F
5-day plot - Wind Speed at 10 Meters Wind Speed at 10 meters (WSPD10M): 5.8 kts
5-day plot - Wind Speed at 20 Meters Wind Speed at 20 meters (WSPD20M): 5.8 kts
5-day plot -  Wind Speed, Wind Gust and Atmospheric Pressure Combined plot of Wind Speed, Gust, and Air Pressure
Previous observations
TIME
(CDT)
5-day plot - Wind Direction
WDIR
 
5-day plot - Wind Speed
WSPD
kts
5-day plot - Wind Gust
GST
kts
5-day plot - Wave Height
WVHT
ft
5-day plot - Dominant Wave Period
DPD
sec
5-day plot - Average Wave Period
APD
sec
5-day plot - Mean Wave Direction
MWD
 
5-day plot - Atmospheric Pressure
PRES
in
5-day plot - Pressure Tendency
PTDY
in
5-day plot - Air Temperature
ATMP
°F
5-day plot - Water Temperature
WTMP
°F
5-day plot - Dew Point
DEWP
°F
5-day plot - Salinity
SAL
psu
5-day plot - Visibility
VIS
nmi
5-day plot - Tide (above MLLW)
TIDE
ft
2024-07-17 08:10 pmNNW 5.8-----30.13- 69.4 66.9 57.6---
2024-07-17 08:00 pmNNW 5.8-----30.13+0.00 69.6 66.9 57.0---
2024-07-17 07:50 pmNNW 7.8-----30.13- 70.0 66.9 56.8---
2024-07-17 07:40 pmNNW 5.8-----30.13- 69.8 66.9 57.0---
2024-07-17 07:30 pmNNW 7.8-----30.13- 69.8 66.9 56.8---
2024-07-17 07:20 pmNNW 7.8-----30.13- 69.6 67.1 57.2---
2024-07-17 07:10 pmNNW 7.8-----30.13- 69.6 67.1 57.4---
2024-07-17 07:00 pmNNW 7.8-----30.12+0.00 69.8 67.1 56.8---
2024-07-17 06:50 pmNNW 9.7-----30.13- 70.0 67.1 56.8---
2024-07-17 06:40 pmNNW 7.8-----30.12- 70.2 67.1 56.5---
2024-07-17 06:30 pmNNW 7.8-----30.12- 70.2 67.1 56.7---
2024-07-17 06:20 pmNNW 7.8-----30.12- 70.2 67.1 56.5---
2024-07-17 06:10 pm N 7.8-----30.12- 70.2 67.1 56.8---
2024-07-17 06:00 pmNNW 7.8-----30.12-0.01 70.0 67.3 57.2---
2024-07-17 05:50 pm N 7.8-----30.12- 70.2 67.3 55.9---
2024-07-17 05:40 pm N 5.8-----30.12- 69.8 67.3 55.8---
2024-07-17 05:30 pm N 7.8-----30.12- 69.8 67.3 56.5---
2024-07-17 05:20 pm N 5.8-----30.12- 70.2 67.3 55.2---
2024-07-17 05:10 pm N 5.8-----30.12- 70.0 67.3 54.5---
2024-07-17 05:00 pm N 7.8-----30.12+0.00 69.8 67.3 55.4---
2024-07-17 04:50 pm N 7.8-----30.12- 70.0 67.3 55.0---
2024-07-17 04:40 pm N 7.8-----30.12- 69.6 67.3 55.4---
2024-07-17 04:30 pm N 7.8-----30.12- 69.4 67.1 55.9---
2024-07-17 04:20 pm N 3.9-----30.13- 69.4 67.1 55.9---
2024-07-17 04:10 pmNNE 5.8-----30.12- 69.4 67.1 54.3---
2024-07-17 04:00 pm N 5.8-----30.13+0.00 69.3 67.1 54.9---
2024-07-17 03:50 pm N 7.8-----30.13- 69.4 67.1 54.1---
2024-07-17 03:40 pm N 5.8-----30.13- 69.3 67.1 54.3---
2024-07-17 03:30 pmNNW 7.8-----30.13- 69.1 67.1 54.0---
2024-07-17 03:20 pmNNW 7.8-----30.13- 68.9 67.1 54.5---
2024-07-17 03:10 pmNNW 7.8-----30.13- 68.9 67.1 54.3---
2024-07-17 03:00 pmNNW 7.8-----30.13+0.01 68.7 67.1 54.0---
2024-07-17 02:50 pm N 5.8-----30.13- 68.7 66.9 54.7---
2024-07-17 02:40 pm N 7.8-----30.13- 68.4 66.9 53.4---
2024-07-17 02:30 pmNNW 9.7-----30.12- 68.2 66.9 54.3---
2024-07-17 02:20 pmNNW 5.8-----30.13- 68.2 66.9 52.7---
2024-07-17 02:10 pmNNW 5.8-----30.13- 68.0 66.7 54.1---
2024-07-17 02:00 pm NW 5.8-----30.13+0.01 67.8 66.6 53.8---
2024-07-17 01:50 pmNNW 7.8-----30.13- 67.5 66.6 53.8---
2024-07-17 01:40 pmNNW 9.7-----30.13- 67.5 66.6 53.8---
2024-07-17 01:30 pmNNW 9.7-----30.12- 67.3 66.4 54.3---
2024-07-17 01:20 pmNNW 7.8-----30.13- 67.3 66.4 54.5---
2024-07-17 01:10 pmNNW 9.7-----30.12- 67.3 66.4 54.5---
2024-07-17 01:00 pmNNW 9.7-----30.12+0.02 67.1 66.4 54.0---
2024-07-17 12:50 pmNNW 9.7-----30.12- 67.1 66.4 54.0---
2024-07-17 12:40 pm NW 9.7-----30.12- 66.7 66.4 54.5---
2024-07-17 12:30 pm W 7.8-----30.12- 65.3 66.4 55.6---
2024-07-17 12:20 pm SW 7.8-----30.12- 64.8 66.2 55.6---
2024-07-17 12:10 pmSSW 7.8-----30.12- 64.2 66.2 55.4---
2024-07-17 12:00 pmSSW 9.7-----30.12+0.02 64.2 66.4 55.4---
2024-07-17 11:50 amSSW 7.8-----30.12- 64.2 66.4 55.4---
2024-07-17 11:40 am SW 5.8-----30.12- 64.0 66.4 55.2---
2024-07-17 11:30 am SW 7.8-----30.12- 64.2 66.2 55.0---
2024-07-17 11:20 am SW 5.8-----30.12- 64.8 66.0 54.5---
2024-07-17 11:10 amSSW 3.9-----30.12- 64.8 66.0 54.5---
2024-07-17 11:00 am S 3.9-----30.11+0.03 64.6 66.0 54.3---
2024-07-17 10:50 am SE 1.9-----30.11- 65.5 66.0 54.3---
2024-07-17 10:40 amNNE 1.9-----30.11- 64.4 65.8 53.6---
2024-07-17 10:30 amNNE 3.9-----30.11- 63.7 65.8 53.6---
2024-07-17 10:20 amNNE 5.8-----30.11- 63.3 65.8 53.6---
2024-07-17 10:10 am N 5.8-----30.10- 63.0 65.7 53.4---
2024-07-17 10:00 am N 7.8-----30.10+0.04 62.8 65.7 53.6---
2024-07-17 09:50 am N 7.8-----30.10- 62.6 65.7 53.6---
2024-07-17 09:40 am N 7.8-----30.10- 62.4 65.7 53.1---
2024-07-17 09:30 am N 5.8-----30.10- 62.1 65.7 53.2---
2024-07-17 09:20 am N 5.8-----30.10- 61.3 65.7 52.9---
2024-07-17 09:10 am N 5.8-----30.10- 61.2 65.7 53.1---
2024-07-17 09:00 am N 7.8-----30.10+0.06 60.8 65.7 52.5---
2024-07-17 08:50 amNNW 7.8-----30.09- 60.8 65.5 53.1---
2024-07-17 08:40 am N 7.8-----30.09- 60.4 65.5 52.9---
2024-07-17 08:30 am N 9.7-----30.09- 60.3 65.5 52.5---
2024-07-17 08:20 am N 9.7-----30.09- 59.9 65.5 52.3---
2024-07-17 08:10 am N 7.8-----30.09- 59.5 65.7 52.0---
2024-07-17 08:00 am N 7.8-----30.09+0.06 59.0 65.7 52.0---
2024-07-17 07:50 amNNW 9.7-----30.08- 58.8 65.7 52.2---
2024-07-17 07:40 amNNW 11.7-----30.07- 58.6 65.7 52.2---
2024-07-17 07:30 amNNW 11.7-----30.07- 58.3 65.7 52.0---
2024-07-17 07:20 am NW 9.7-----30.06- 58.1 65.7 51.6---
2024-07-17 07:10 amNNW 13.6-----30.06- 57.9 65.7 51.3---
2024-07-17 07:00 am NW 11.7-----30.06+0.07 58.1 65.7 51.4---
2024-07-17 06:50 am NW 11.7-----30.06- 58.1 65.7 51.3---
2024-07-17 06:40 am NW 11.7-----30.06- 58.1 65.8 51.4---
2024-07-17 06:30 am NW 9.7-----30.05- 58.1 65.8 51.4---
2024-07-17 06:20 amNNW 9.7-----30.05- 58.3 65.8 51.4---
2024-07-17 06:10 amNNW 11.7-----30.04- 58.5 65.8 51.8---
2024-07-17 06:00 amNNW 11.7-----30.04+0.06 58.5 65.8 51.6---
2024-07-17 05:50 am N 13.6-----30.03- 58.8 66.0 52.0---
2024-07-17 05:40 amNNW 13.6-----30.03- 59.0 66.0 52.0---
2024-07-17 05:30 am N 13.6-----30.03- 59.0 66.2 52.0---
2024-07-17 05:20 am N 13.6-----30.03- 59.2 66.2 52.5---
2024-07-17 05:10 am N 11.7-----30.03- 59.2 66.2 52.5---
2024-07-17 05:00 am N 11.7-----30.02+0.06 59.2 66.2 52.5---
2024-07-17 04:50 am N 11.7-----30.01- 59.2 66.2 52.3---
2024-07-17 04:40 am N 13.6-----30.01- 59.5 66.2 52.7---
2024-07-17 04:30 amNNW 15.5-----30.00- 59.9 66.2 52.9---
2024-07-17 04:20 am N 15.5-----30.00- 59.9 66.0 52.9---
2024-07-17 04:10 amNNW 13.6-----29.99- 60.3 66.2 53.4---
2024-07-17 04:00 amNNW 13.6-----29.99+0.04 60.8 66.2 53.6---
2024-07-17 03:50 amNNW 11.7-----29.98- 61.3 66.2 54.3---
2024-07-17 03:40 amNNW 11.7-----29.98- 61.5 66.2 54.5---
2024-07-17 03:30 amNNW 11.7-----29.98- 61.2 66.2 54.3---
2024-07-17 03:20 amNNW 11.7-----29.98- 61.3 66.4 54.5---
2024-07-17 03:10 amNNW 9.7-----29.98- 61.5 66.4 54.5---
2024-07-17 03:00 amNNW 9.7-----29.98+0.05 61.7 66.4 54.7---
2024-07-17 02:50 amNNW 9.7-----29.97- 61.9 66.6 54.9---
2024-07-17 02:40 amNNW 9.7-----29.97- 62.1 66.6 54.5---
2024-07-17 02:30 am N 9.7-----29.96- 62.6 66.7 54.1---
2024-07-17 02:20 am N 7.8-----29.96- 62.6 66.7 54.3---
2024-07-17 02:10 am N 7.8-----29.96- 62.6 66.7 54.1---
2024-07-17 02:00 am N 9.7-----29.96+0.04 62.8 66.7 54.3---
2024-07-17 01:50 amNNW 7.8-----29.96- 63.3 66.7 54.9---
2024-07-17 01:40 am N 7.8-----29.96- 63.5 66.7 54.7---
2024-07-17 01:30 am N 9.7-----29.96- 63.7 66.7 55.0---
2024-07-17 01:20 amNNW 13.6-----29.95- 63.7 66.7 55.4---
2024-07-17 01:10 am N 13.6-----29.95- 64.2 66.7 55.9---
2024-07-17 01:00 amNNW 15.5-----29.94+0.04 64.4 66.7 55.9---
2024-07-17 12:50 amNNW 15.5-----29.94- 64.8 66.9 56.5---
2024-07-17 12:40 amNNW 13.6-----29.94- 65.1 66.9 56.8---
2024-07-17 12:30 amNNW 11.7-----29.94- 65.3 66.9 56.3---
2024-07-17 12:20 amNNW 11.7-----29.93- 65.7 67.1 56.7---
2024-07-17 12:10 amNNW 13.6-----29.93- 65.7 67.1 57.0---
2024-07-17 12:00 amNNW 13.6-----29.93+0.03 65.7 67.1 57.6---
2024-07-16 11:50 pmNNW 11.7-----29.92- 65.7 67.1 57.0---
2024-07-16 11:40 pm NW 11.7-----29.92- 65.7 67.3 56.7---
2024-07-16 11:30 pm NW 11.7-----29.92- 65.8 67.3 57.0---
2024-07-16 11:20 pm NW 11.7-----29.92- 66.2 67.3 56.5---
2024-07-16 11:10 pm NW 11.7-----29.92- 66.2 67.3 56.3---
2024-07-16 11:00 pm NW 11.7-----29.92+0.04 66.2 67.5 56.7---
2024-07-16 10:50 pm NW 11.7-----29.92- 66.2 67.5 57.0---
2024-07-16 10:40 pm NW 13.6-----29.91- 66.2 67.5 56.5---
2024-07-16 10:30 pmNNW 13.6-----29.91- 66.4 67.5 56.7---
2024-07-16 10:20 pm NW 11.7-----29.91- 66.4 67.5 56.5---
2024-07-16 10:10 pm NW 11.7-----29.91- 66.4 67.5 56.5---
2024-07-16 10:00 pm NW 11.7-----29.91+0.04 66.6 67.6 55.9---
2024-07-16 09:50 pm NW 13.6-----29.91- 66.7 67.6 56.3---
2024-07-16 09:40 pmNNW 9.7-----29.91- 66.4 67.6 56.3---
2024-07-16 09:30 pmNNW 11.7-----29.91- 66.6 67.6 55.8---
2024-07-16 09:20 pm NW 13.6-----29.90- 67.1 67.6 56.1---
2024-07-16 09:10 pmNNW 11.7-----29.90- 67.3 67.6 56.3---
2024-07-16 09:00 pm NW 11.7-----29.89+0.04 67.6 67.8 56.1---
2024-07-16 08:50 pmNNW 13.6-----29.89- 68.0 67.8 56.1---
2024-07-16 08:40 pmNNW 11.7-----29.89- 68.5 68.0 56.7---
2024-07-16 08:30 pmNNW 9.7-----29.89- 68.7 68.0 56.8---
2024-07-16 08:20 pmNNW 13.6-----29.89- 68.9 68.0 57.4---
2024-07-16 08:10 pmNNW 15.5-----29.89- 69.1 68.0 57.6---
2024-07-16 08:00 pmNNW 15.5-----29.88+0.04 69.4 68.0 57.7---
2024-07-16 07:50 pmNNW 13.6-----29.88- 70.5 68.2 57.9---

Ocean Conditions at 45028 as of
(8:30 pm CDT on 07/17/2024)
0130 GMT on 07/18/2024:

These oceanographic data are displayed in rounded times.

     

Click on the graph icon in the table below to see a time series plot of the last five days of that observation.

Depth (DEPTH): 3.3 ft
5-day plot - Ocean Temperature Ocean Temperature (OTMP):66.79 °F
Previous observations
TIME
(CDT)
DEPTH
ft
5-day plot - Ocean Temperature
OTMP
°F
5-day plot - Conductivity
COND
mS/cm
5-day plot - Salinity
SAL
psu
5-day plot - Oxygen Concentration
O2%
%
5-day plot - Oxygen Concentration
O2PPM
ppm
5-day plot - Chlorophyll
CLCON
ug/l
5-day plot - Turbidity
TURB
FTU
5-day plot - pH
PH
 
5-day plot - Eh
EH
mv
2024-07-17 08:20 pm 3.366.79--------
2024-07-17 08:10 pm 3.366.83--------
2024-07-17 08:00 pm 3.366.85--------
2024-07-17 07:50 pm 3.366.90--------
2024-07-17 07:40 pm 3.366.96--------
2024-07-17 07:30 pm 3.366.99--------
2024-07-17 07:20 pm 3.367.01--------
2024-07-17 07:10 pm 3.367.03--------
2024-07-17 07:00 pm 3.367.06--------
2024-07-17 06:50 pm 3.367.14--------
2024-07-17 06:40 pm 3.367.08--------
2024-07-17 06:30 pm 3.367.12--------
2024-07-17 06:20 pm 3.367.14--------
2024-07-17 06:10 pm 3.367.17--------
2024-07-17 06:00 pm 3.367.21--------
2024-07-17 05:50 pm 3.367.24--------
2024-07-17 05:40 pm 3.367.24--------
2024-07-17 05:30 pm 3.367.28--------
2024-07-17 05:20 pm 3.367.30--------
2024-07-17 05:10 pm 3.367.26--------
2024-07-17 05:00 pm 3.367.21--------
2024-07-17 04:50 pm 3.367.23--------
2024-07-17 04:40 pm 3.367.19--------
2024-07-17 04:30 pm 3.367.14--------
2024-07-17 04:20 pm 3.367.15--------
2024-07-17 04:10 pm 3.367.14--------
2024-07-17 04:00 pm 3.367.10--------
2024-07-17 03:50 pm 3.367.10--------
2024-07-17 03:40 pm 3.367.06--------
2024-07-17 03:30 pm 3.367.06--------
2024-07-17 03:20 pm 3.367.03--------
2024-07-17 03:10 pm 3.367.06--------
2024-07-17 03:00 pm 3.367.01--------
2024-07-17 02:50 pm 3.366.97--------
2024-07-17 02:40 pm 3.366.94--------
2024-07-17 02:30 pm 3.366.92--------
2024-07-17 02:20 pm 3.366.83--------
2024-07-17 02:10 pm 3.366.76--------
2024-07-17 02:00 pm 3.366.61--------
2024-07-17 01:50 pm 3.366.56--------
2024-07-17 01:40 pm 3.366.49--------
2024-07-17 01:30 pm 3.366.45--------
2024-07-17 01:20 pm 3.366.42--------
2024-07-17 01:10 pm 3.366.36--------
2024-07-17 01:00 pm 3.366.34--------
2024-07-17 12:50 pm 3.366.33--------
2024-07-17 12:40 pm 3.366.31--------
2024-07-17 12:30 pm 3.366.29--------
2024-07-17 12:20 pm 3.366.25--------
2024-07-17 12:10 pm 3.366.25--------
2024-07-17 12:00 pm 3.366.29--------
2024-07-17 11:50 am 3.366.33--------
2024-07-17 11:40 am 3.366.31--------
2024-07-17 11:30 am 3.366.24--------
2024-07-17 11:20 am 3.366.09--------
2024-07-17 11:10 am 3.366.04--------
2024-07-17 11:00 am 3.366.00--------
2024-07-17 10:50 am 3.365.97--------
2024-07-17 10:40 am 3.365.88--------
2024-07-17 10:30 am 3.365.80--------
2024-07-17 10:20 am 3.365.75--------
2024-07-17 10:10 am 3.365.71--------
2024-07-17 10:00 am 3.365.70--------
2024-07-17 09:50 am 3.365.66--------
2024-07-17 09:40 am 3.365.66--------
2024-07-17 09:30 am 3.365.61--------
2024-07-17 09:20 am 3.365.59--------
2024-07-17 09:10 am 3.365.57--------
2024-07-17 09:00 am 3.365.57--------
2024-07-17 08:50 am 3.365.55--------
2024-07-17 08:40 am 3.365.55--------
2024-07-17 08:30 am 3.365.55--------
2024-07-17 08:20 am 3.365.55--------
2024-07-17 08:10 am 3.365.57--------
2024-07-17 08:00 am 3.365.59--------
2024-07-17 07:50 am 3.365.59--------
2024-07-17 07:40 am 3.365.61--------
2024-07-17 07:30 am 3.365.64--------
2024-07-17 07:20 am 3.365.66--------
2024-07-17 07:10 am 3.365.68--------
2024-07-17 07:00 am 3.365.71--------
2024-07-17 06:50 am 3.365.73--------
2024-07-17 06:40 am 3.365.75--------
2024-07-17 06:30 am 3.365.79--------
2024-07-17 06:20 am 3.365.80--------
2024-07-17 06:10 am 3.365.84--------
2024-07-17 06:00 am 3.365.89--------
2024-07-17 05:50 am 3.365.95--------
2024-07-17 05:40 am 3.366.02--------
2024-07-17 05:30 am 3.366.11--------
2024-07-17 05:20 am 3.366.16--------
2024-07-17 05:10 am 3.366.20--------
2024-07-17 05:00 am 3.366.22--------
2024-07-17 04:50 am 3.366.18--------
2024-07-17 04:40 am 3.366.18--------
2024-07-17 04:30 am 3.366.11--------
2024-07-17 04:20 am 3.366.04--------
2024-07-17 04:10 am 3.366.11--------
2024-07-17 04:00 am 3.366.15--------
2024-07-17 03:50 am 3.366.13--------
2024-07-17 03:40 am 3.366.20--------
2024-07-17 03:30 am 3.366.24--------
2024-07-17 03:20 am 3.366.29--------
2024-07-17 03:10 am 3.366.36--------
2024-07-17 03:00 am 3.366.45--------
2024-07-17 02:50 am 3.366.54--------
2024-07-17 02:40 am 3.366.60--------
2024-07-17 02:30 am 3.366.65--------
2024-07-17 02:20 am 3.366.72--------
2024-07-17 02:10 am 3.366.74--------
2024-07-17 02:00 am 3.366.76--------
2024-07-17 01:50 am 3.366.78--------
2024-07-17 01:40 am 3.366.72--------
2024-07-17 01:30 am 3.366.72--------
2024-07-17 01:20 am 3.366.76--------
2024-07-17 01:10 am 3.366.79--------
2024-07-17 01:00 am 3.366.79--------
2024-07-17 12:50 am 3.366.87--------
2024-07-17 12:40 am 3.366.94--------
2024-07-17 12:30 am 3.366.96--------
2024-07-17 12:20 am 3.367.03--------
2024-07-17 12:10 am 3.367.06--------
2024-07-17 12:00 am 3.367.12--------
2024-07-16 11:50 pm 3.367.17--------
2024-07-16 11:40 pm 3.367.21--------
2024-07-16 11:30 pm 3.367.26--------
2024-07-16 11:20 pm 3.367.32--------
2024-07-16 11:10 pm 3.367.35--------
2024-07-16 11:00 pm 3.367.39--------
2024-07-16 10:50 pm 3.367.41--------
2024-07-16 10:40 pm 3.367.44--------
2024-07-16 10:30 pm 3.367.48--------
2024-07-16 10:20 pm 3.367.51--------
2024-07-16 10:10 pm 3.367.53--------
2024-07-16 10:00 pm 3.367.59--------
2024-07-16 09:50 pm 3.367.60--------
2024-07-16 09:40 pm 3.367.62--------
2024-07-16 09:30 pm 3.367.62--------
2024-07-16 09:20 pm 3.367.64--------
2024-07-16 09:10 pm 3.367.68--------
2024-07-16 09:00 pm 3.367.73--------
2024-07-16 08:50 pm 3.367.84--------
2024-07-16 08:40 pm 3.367.91--------
2024-07-16 08:30 pm 3.367.95--------
2024-07-16 08:20 pm 3.367.98--------
2024-07-16 08:10 pm 3.368.00--------
2024-07-16 08:00 pm 3.368.05--------
2024-07-16 07:50 pm 3.368.11--------

Solar Radiation Conditions at 45028 as of
(8:30 pm CDT on 07/17/2024)
0130 GMT on 07/18/2024:
     

Click on the graph icon in the table below to see a time series plot of the last five days of that observation.

5-day plot - Short Wave Radiation 1 Short Wave Radiation 1 (SRAD1): 49.6watts/meter2
Previous observations
TIME
(CDT)
5-day plot - Short Wave Radiation 1
SRAD1
w/m2
5-day plot - Short Wave Radiation 2
SRAD2
w/m2
5-day plot - Long Wave Radiation
LRAD
w/m2
2024-07-17 08:20 pm 68.2--
2024-07-17 08:10 pm 88.8--
2024-07-17 08:00 pm 116.8--
2024-07-17 07:50 pm 141.2--
2024-07-17 07:40 pm 178.2--
2024-07-17 07:30 pm 206.0--
2024-07-17 07:20 pm 230.5--
2024-07-17 07:10 pm 194.1--
2024-07-17 07:00 pm 164.8--
2024-07-17 06:50 pm 246.6--
2024-07-17 06:40 pm 309.5--
2024-07-17 06:30 pm 365.5--
2024-07-17 06:20 pm 406.8--
2024-07-17 06:10 pm 455.5--
2024-07-17 06:00 pm 492.3--
2024-07-17 05:50 pm 558.4--
2024-07-17 05:40 pm 315.3--
2024-07-17 05:30 pm 227.1--
2024-07-17 05:20 pm 484.0--
2024-07-17 05:10 pm 441.0--
2024-07-17 05:00 pm 414.3--
2024-07-17 04:50 pm 539.8--
2024-07-17 04:40 pm 539.4--
2024-07-17 04:30 pm 380.0--
2024-07-17 04:20 pm 369.5--
2024-07-17 04:10 pm 614.1--
2024-07-17 04:00 pm 400.2--
2024-07-17 03:50 pm 670.3--
2024-07-17 03:40 pm 602.0--
2024-07-17 03:30 pm 658.7--
2024-07-17 03:20 pm 364.2--
2024-07-17 03:10 pm 765.4--
2024-07-17 03:00 pm 631.3--
2024-07-17 02:50 pm 846.0--
2024-07-17 02:40 pm 929.0--
2024-07-17 02:30 pm 916.0--
2024-07-17 02:20 pm 819.0--
2024-07-17 02:10 pm 965.0--
2024-07-17 02:00 pm 876.0--
2024-07-17 01:50 pm 906.0--
2024-07-17 01:40 pm 813.0--
2024-07-17 01:30 pm 452.8--
2024-07-17 01:20 pm 563.1--
2024-07-17 01:10 pm 472.7--
2024-07-17 01:00 pm 553.6--
2024-07-17 12:50 pm 529.9--
2024-07-17 12:40 pm 304.3--
2024-07-17 12:30 pm 293.3--
2024-07-17 12:20 pm 305.3--
2024-07-17 12:10 pm 291.1--
2024-07-17 12:00 pm 242.3--
2024-07-17 11:50 am 351.3--
2024-07-17 11:40 am 349.1--
2024-07-17 11:30 am 412.6--
2024-07-17 11:20 am 676.7--
2024-07-17 11:10 am 737.3--
2024-07-17 11:00 am 820.0--
2024-07-17 10:50 am 736.4--
2024-07-17 10:40 am 633.8--
2024-07-17 10:30 am 632.6--
2024-07-17 10:20 am 714.8--
2024-07-17 10:10 am 671.4--
2024-07-17 10:00 am 660.4--
2024-07-17 09:50 am 638.1--
2024-07-17 09:40 am 609.9--
2024-07-17 09:30 am 577.2--
2024-07-17 09:20 am 410.8--
2024-07-17 09:10 am 514.8--
2024-07-17 09:00 am 513.7--
2024-07-17 08:50 am 469.6--
2024-07-17 08:40 am 454.9--
2024-07-17 08:30 am 416.1--
2024-07-17 08:20 am 376.9--
2024-07-17 08:10 am 373.9--
2024-07-17 08:00 am 335.6--
2024-07-17 07:50 am 298.8--
2024-07-17 07:40 am 278.3--
2024-07-17 07:30 am 266.0--
2024-07-17 07:20 am 241.8--
2024-07-17 07:10 am 198.4--
2024-07-17 07:00 am 176.6--
2024-07-17 06:50 am 150.4--
2024-07-17 06:40 am 129.6--
2024-07-17 06:30 am 109.5--
2024-07-17 06:20 am 86.0--
2024-07-17 06:10 am 67.6--
2024-07-17 06:00 am 29.4--
2024-07-17 05:50 am 7.8--
2024-07-17 05:40 am 3.4--
2024-07-16 09:00 pm 1.8--
2024-07-16 08:50 pm 6.0--
2024-07-16 08:40 pm 12.1--
2024-07-16 08:30 pm 21.6--
2024-07-16 08:20 pm 56.5--
2024-07-16 08:10 pm 86.2--
2024-07-16 08:00 pm 122.4--
2024-07-16 07:50 pm 141.1--